Regional Weather Roundup
Issued by NWS

Home | Current Version | Previous Version | Text Only | Print | Product List | Glossary On
Versions: 1 2 3 4 5 6 7 8 9 10 11 12 13 14 15 16 17 18 19 20 21 22 23 24 25 26 27 28 29 30 31 32 33 34 35 36 37 38 39 40 41 42 43 44 45 46 47 48 49 50
000
ASUS42 KKEY 042310
RWRKEY

FLORIDA REGIONAL WEATHER ROUNDUP FOR THE FLORIDA KEYS
NATIONAL WEATHER SERVICE KEY WEST FLORIDA
600 PM EST WED MAR 04 2015

...SOUTH FLORIDA AND THE KEYS...

CITY           SKY/WX    TMP DP  RH WIND       PRES   REMARKS
FORT MYERS     NOT AVBL
SW REGIONAL AP NOT AVBL
NAPLES         NOT AVBL
MIAMI          NOT AVBL
WEST KENDALL   NOT AVBL
HOMESTEAD      PTCLDY    77  68  75 E7        30.10R
MARATHON       NOT AVBL
BOCA CHICA NAS CLEAR     77  69  76 E15       30.06S
KEY WEST INTL  NOT AVBL

...INTERNATIONAL WEATHER...

CITY           SKY/WX    TMP DP  RH WIND       PRES   REMARKS
NASSAU BAHAMAS PTCLDY    77  70  78 E9        30.12S
CANCUN MEXICO  PTSUNNY   81  72  74 SE16      29.95S
COZUMEL MEXICO   N/A    N/A N/A N/A MISG        N/A

ADJACENT COASTAL WATERS...

STATION/POSITION TIME  SKY/WX   TEMP    WIND        PRES    WAVE
                                AIR SEA DIR/SP/G            HT/PER
                 (UTC)          (F)     (DEG/KT/KT) (MB)    (FT/S)
PULASKI SHOAL LI 2200            75     110/ 11/ 12 1017.3F
SAND KEY         2250            76      90/ 15/ 17 1017.6S
SOMBRERO KEY     2100            78     120/ 18/ 20 1018.8F
LONG KEY         2100            77 78  110/ 14/ 16 1019.1F
MOLASSES REEF    2100            76 76  120/ 13/ 14 1018.8F
FOWEY ROCKS      NOT AVBL
Buoy 42080       NOT AVBL

$$



USA.gov is the U.S. government's official web portal to all federal, state and local government web resources and services.